GW6177 Weather Reports


Display with metric or nautical units.
time (UTC)temp
F
wind
direction
speed
MPH
gust
MPH
rain 1hr
in
rain 24hr
in
rain mn
in
humidity
%
barometer
mb
20260504081800 56 54 0.0 0.0 0.00 0.25 0.25 95 1007.1
20260504081256 56 104 1.0 3.0 0.00 0.25 0.25 95 1007.3
20260504080753 56 28 2.0 2.0 0.00 0.25 0.25 95 1007.6
20260504080249 56 69 1.0 1.0 0.00 0.25 0.25 94 1007.8
20260504070217 57 47 2.0 3.0 0.07 0.24 0.24 93 1006.8
20260504060137 55 83 0.0 3.0 0.02 0.08 0.08 92 1007.9
20260504050605 61 26 3.0 4.0 0.00 0.00 0.00 66 1008.1
20260504045559 61 244 2.0 3.0 0.00 0.00 0.00 64 1007.8
20260504045054 61 127 5.0 5.0 0.00 0.00 0.00 63 1007.6
20260504044552 61 67 3.0 5.0 0.00 0.00 0.00 63 1007.5
20260504044049 61 80 3.0 3.0 0.00 0.00 0.00 63 1007.2
20260504043546 61 50 4.0 5.0 0.00 0.00 0.00 62 1007.4
20260504043043 61 48 4.0 4.0 0.00 0.00 0.00 61 1007.7
20260504042540 62 57 2.0 2.0 0.00 0.00 0.00 61 1007.7
20260504042037 62 87 2.0 4.0 0.00 0.00 0.00 60 1008.0
20260504041533 62 73 1.0 2.0 0.00 0.00 0.00 61 1008.1
20260504041029 62 69 0.0 2.0 0.00 0.00 0.00 59 1007.9
20260504040527 63 103 2.0 4.0 0.00 0.00 0.00 59 1008.1
20260504040024 63 82 1.0 4.0 0.00 0.00 0.00 59 1008.3
20260504035521 63 107 2.0 5.0 0.00 0.00 0.00 58 1008.1
20260504035017 63 104 2.0 6.0 0.00 0.00 0.00 58 1008.1
20260504034515 63 36 2.0 5.0 0.00 0.00 0.00 58 1008.3
20260504034011 64 96 3.0 4.0 0.00 0.00 0.00 57 1008.1
20260504033509 64 35 0.0 2.0 0.00 0.00 0.00 58 1008.1
20260504033007 64 67 2.0 5.0 0.00 0.00 0.00 56 1008.3
20260504032503 64 77 2.0 3.0 0.00 0.00 0.00 56 1008.4
20260504032000 64 87 1.0 4.0 0.00 0.00 0.00 55 1008.4
20260504031456 64 74 1.0 3.0 0.00 0.00 0.00 55 1008.4
20260504030953 65 79 3.0 4.0 0.00 0.00 0.00 55 1008.5
20260504030451 65 38 1.0 4.0 0.00 0.00 0.00 55 1008.5
20260504025946 65 96 2.0 4.0 0.00 0.00 0.00 54 1008.3
20260504025443 65 99 2.0 5.0 0.00 0.00 0.00 53 1008.4
20260504024940 65 104 4.0 8.0 0.00 0.00 0.00 54 1008.4
20260504024437 66 269 0.0 4.0 0.00 0.00 0.00 54 1008.4
20260504023934 66 89 3.0 6.0 0.00 0.00 0.00 53 1008.4
20260504023431 66 83 4.0 5.0 0.00 0.00 0.00 52 1008.6
20260504022926 66 94 4.0 4.0 0.00 0.00 0.00 53 1008.6
20260504022423 66 4 2.0 7.0 0.00 0.00 0.00 52 1008.7
20260504021920 66 287 0.0 5.0 0.00 0.00 0.00 52 1008.4
20260504021417 66 281 2.0 6.0 0.00 0.00 0.00 53 1008.3
20260504020914 66 76 1.0 4.0 0.00 0.00 0.00 54 1008.2
20260504020411 66 96 2.0 4.0 0.00 0.00 0.00 52 1008.2
20260504015907 66 69 3.0 3.0 0.00 0.00 0.00 52 1008.3
20260504015403 66 77 3.0 3.0 0.00 0.00 0.00 51 1008.3
20260504014859 67 80 2.0 2.0 0.00 0.00 0.00 51 1008.2
20260504014355 67 60 2.0 4.0 0.00 0.00 0.00 50 1008.4
20260504013853 67 91 1.0 4.0 0.00 0.00 0.00 50 1008.1
20260504013351 67 112 3.0 5.0 0.00 0.00 0.00 50 1008.0
20260504012847 67 99 8.0 9.0 0.00 0.00 0.00 51 1008.1
20260504012345 67 83 3.0 7.0 0.00 0.00 0.00 50 1007.9
20260504011842 67 77 2.0 4.0 0.00 0.00 0.00 50 1008.1
20260504011339 67 74 2.0 3.0 0.00 0.00 0.00 49 1008.1
20260504010835 68 95 2.0 3.0 0.00 0.00 0.00 49 1008.0
20260504010330 68 117 2.0 6.0 0.00 0.00 0.00 47 1007.9
20260504005827 68 105 2.0 6.0 0.00 0.00 0.00 48 1008.0
20260504005324 68 93 2.0 6.0 0.00 0.00 0.00 47 1007.9
20260504004822 68 77 2.0 4.0 0.00 0.00 0.00 47 1007.9
20260504004319 68 110 2.0 6.0 0.00 0.00 0.00 47 1007.8
20260504003815 69 72 5.0 7.0 0.00 0.00 0.00 47 1008.0
20260504003312 69 115 3.0 5.0 0.00 0.00 0.00 47 1007.8
20260504002808 69 41 2.0 6.0 0.00 0.00 0.00 47 1007.6
20260504002306 69 82 3.0 7.0 0.00 0.00 0.00 47 1007.7
20260504001804 69 105 3.0 5.0 0.00 0.00 0.00 46 1007.8
20260504001300 69 102 2.0 6.0 0.00 0.00 0.00 46 1008.0
20260504000757 69 118 4.0 6.0 0.00 0.00 0.00 46 1007.9
20260504000254 69 106 4.0 5.0 0.00 0.00 0.00 46 1008.1
20260503235752 70 106 4.0 6.0 0.00 0.00 0.00 45 1008.0
20260503235249 70 145 4.0 5.0 0.00 0.00 0.00 44 1008.0
20260503234747 70 67 3.0 5.0 0.00 0.00 0.00 45 1007.9
20260503234245 70 72 2.0 4.0 0.00 0.00 0.00 44 1008.0
20260503233741 70 119 2.0 9.0 0.00 0.00 0.00 43 1008.0
20260503233238 71 112 2.0 8.0 0.00 0.00 0.00 43 1007.9
20260503232735 71 110 3.0 6.0 0.00 0.00 0.00 42 1008.4
20260503232232 71 49 6.0 6.0 0.00 0.00 0.00 42 1008.3
20260503231730 71 114 2.0 4.0 0.00 0.00 0.00 41 1008.2
20260503231226 72 110 2.0 5.0 0.00 0.00 0.00 42 1007.9
20260503230722 72 74 1.0 9.0 0.00 0.00 0.00 40 1008.4
20260503230220 72 302 3.0 4.0 0.00 0.00 0.00 40 1008.7
20260503225717 73 109 9.0 10.0 0.00 0.00 0.00 38 1008.5
20260503225217 73 86 5.0 6.0 0.00 0.00 0.00 38 1008.7
20260503224715 74 225 3.0 8.0 0.00 0.00 0.00 37 1008.8
20260503224213 75 359 1.0 9.0 0.00 0.00 0.00 41 1008.6
20260503223710 74 158 0.0 6.0 0.00 0.00 0.00 42 1008.9
20260503223207 74 276 3.0 7.0 0.00 0.00 0.00 39 1009.0
20260503222703 74 355 3.0 9.0 0.00 0.00 0.00 38 1009.1
20260503222201 73 121 3.0 8.0 0.00 0.00 0.00 37 1008.7
20260503221700 73 67 4.0 9.0 0.00 0.00 0.00 37 1009.3
20260503221156 74 87 2.0 9.0 0.00 0.00 0.00 37 1009.0
20260503220653 74 119 6.0 11.0 0.00 0.00 0.00 37 1008.9
20260503220150 73 264 5.0 10.0 0.00 0.00 0.00 37 1009.1
20260503215647 73 93 6.0 14.0 0.00 0.00 0.00 37 1009.1
20260503215143 73 36 7.0 14.0 0.00 0.00 0.00 36 1008.9
20260503214642 73 282 3.0 12.0 0.00 0.00 0.00 38 1009.0
20260503214138 73 38 3.0 12.0 0.00 0.00 0.00 40 1008.9
20260503213637 73 216 9.0 13.0 0.00 0.00 0.00 37 1008.9
20260503213133 73 215 2.0 8.0 0.00 0.00 0.00 38 1008.8
20260503212631 73 57 2.0 7.0 0.00 0.00 0.00 38 1009.0
20260503212129 73 218 6.0 6.0 0.00 0.00 0.00 37 1009.4
20260503211626 72 250 3.0 14.0 0.00 0.00 0.00 36 1009.6
20260503211121 71 268 4.0 17.0 0.00 0.00 0.00 38 1009.6
20260503210618 72 119 11.0 12.0 0.00 0.00 0.00 36 1009.5
20260503210115 72 212 6.0 9.0 0.00 0.00 0.00 36 1009.4
20260503205611 71 254 2.0 6.0 0.00 0.00 0.00 40 1009.5
20260503205107 70 114 5.0 13.0 0.00 0.00 0.00 39 1009.4
20260503204604 70 303 6.0 15.0 0.00 0.00 0.00 38 1009.4
20260503204101 71 97 5.0 14.0 0.00 0.00 0.00 37 1009.3
20260503203558 71 61 5.0 13.0 0.00 0.00 0.00 38 1009.7
20260503203055 70 87 7.0 11.0 0.00 0.00 0.00 37 1009.8
20260503202553 70 116 15.0 15.0 0.00 0.00 0.00 37 1009.8
20260503202051 70 112 15.0 16.0 0.00 0.00 0.00 35 1009.6
20260503201549 70 93 2.0 8.0 0.00 0.00 0.00 38 1009.8
20260503201046 70 244 6.0 18.0 0.00 0.00 0.00 37 1009.9
20260503200541 70 332 3.0 11.0 0.00 0.00 0.00 40 1010.1
20260503200038 69 108 9.0 19.0 0.00 0.00 0.00 38 1010.2
20260503195536 70 238 8.0 11.0 0.00 0.00 0.00 37 1010.5
20260503195032 70 114 4.0 8.0 0.00 0.00 0.00 38 1010.5
20260503194529 70 255 7.0 14.0 0.00 0.00 0.00 38 1010.6
20260503194029 69 217 1.0 8.0 0.00 0.00 0.00 37 1010.7
20260503193527 69 301 5.0 14.0 0.00 0.00 0.00 37 1011.0
20260503193021 70 33 4.0 13.0 0.00 0.00 0.00 36 1011.3
20260503192518 69 105 6.0 14.0 0.00 0.00 0.00 38 1011.2
20260503192014 69 241 3.0 8.0 0.00 0.00 0.00 38 1011.2
20260503191511 69 274 5.0 18.0 0.00 0.00 0.00 39 1011.9
20260503191008 69 91 3.0 16.0 0.00 0.00 0.00 39 1012.0
20260503190505 69 300 4.0 15.0 0.00 0.00 0.00 41 1012.2
20260503190002 68 359 3.0 8.0 0.00 0.00 0.00 43 1012.3
20260503185458 69 144 6.0 10.0 0.00 0.00 0.00 38 1012.2
20260503184957 68 137 2.0 9.0 0.00 0.00 0.00 39 1012.4
20260503184454 68 95 2.0 15.0 0.00 0.00 0.00 40 1012.6
20260503183951 68 228 8.0 11.0 0.00 0.00 0.00 42 1012.9
20260503183447 68 265 5.0 19.0 0.00 0.00 0.00 41 1012.9
20260503182944 67 185 2.0 15.0 0.00 0.00 0.00 43 1012.8
20260503182443 68 101 2.0 10.0 0.00 0.00 0.00 42 1013.0
20260503181940 68 223 3.0 13.0 0.00 0.00 0.00 45 1013.1
20260503181437 68 291 7.0 10.0 0.00 0.00 0.00 42 1013.5
20260503180933 68 359 6.0 14.0 0.00 0.00 0.00 42 1013.6
20260503180431 68 159 0.0 11.0 0.00 0.00 0.00 41 1013.8
20260503175928 67 84 1.0 6.0 0.00 0.00 0.00 43 1014.1
20260503175426 67 204 5.0 9.0 0.00 0.00 0.00 42 1014.2
20260503174922 67 34 7.0 9.0 0.00 0.00 0.00 44 1014.6
20260503174420 67 212 4.0 8.0 0.00 0.00 0.00 42 1014.8
20260503173920 66 267 4.0 10.0 0.00 0.00 0.00 45 1014.6
20260503173417 66 22 4.0 13.0 0.00 0.00 0.00 47 1014.7
20260503172913 65 110 4.0 14.0 0.00 0.00 0.00 48 1014.9
20260503172411 65 126 5.0 13.0 0.00 0.00 0.00 45 1014.7
20260503171907 65 119 7.0 16.0 0.00 0.00 0.00 43 1015.0
20260503171404 65 87 5.0 9.0 0.00 0.00 0.00 49 1014.9
20260503170901 65 1 6.0 9.0 0.00 0.00 0.00 44 1014.7
20260503170357 64 254 3.0 14.0 0.00 0.00 0.00 46 1014.7
20260503150750 59 76 9.0 12.0 0.00 0.00 0.00 54 1016.7
20260503150246 60 145 3.0 14.0 0.00 0.00 0.00 54 1016.9
20260503140210 55 228 3.0 9.0 0.00 0.00 0.00 65 1017.2
20260503131140 50 154 3.0 8.0 0.00 0.00 0.00 71 1017.9
20260503130637 50 74 3.0 14.0 0.00 0.00 0.00 72 1017.6
20260503130135 50 64 3.0 4.0 0.00 0.00 0.00 73 1017.9
20260503110527 46 92 3.0 7.0 0.00 0.00 0.00 79 1016.9